Time,TemperatureF,DewpointF,PressureIn,WindDirection,WindDirectionDegrees,WindSpeedMPH,WindSpeedGustMPH,Humidity,HourlyPrecipIn,Conditions,Clouds,dailyrainin,SoftwareType,DateUTC
2013-01-29 00:03:00,46.0,38.0,30.25,North,360,1.0,-999.0,74,-99.99,,,-99.99,,2013-01-29 05:03:00,
2013-01-29 00:12:00,46.0,38.0,30.25,North,360,1.0,-999.0,74,-99.99,,,-99.99,,2013-01-29 05:12:00,
2013-01-29 00:22:00,45.0,39.0,30.26,North,360,0.0,-999.0,78,-99.99,,,-99.99,,2013-01-29 05:22:00,
2013-01-29 00:32:00,45.0,38.0,30.25,North,360,0.0,-999.0,75,-99.99,,,-99.99,,2013-01-29 05:32:00,
2013-01-29 00:42:00,45.0,38.0,30.25,North,360,0.0,-999.0,75,-99.99,,,-99.99,,2013-01-29 05:42:00,
2013-01-29 00:52:00,46.0,37.0,30.24,North,360,0.0,-999.0,72,-99.99,,,-99.99,,2013-01-29 05:52:00,
2013-01-29 01:02:00,46.0,38.0,30.24,North,360,0.0,-999.0,73,-99.99,,,-99.99,,2013-01-29 06:02:00,
2013-01-29 01:11:00,46.0,38.0,30.24,North,360,0.0,-999.0,73,-99.99,,,-99.99,,2013-01-29 06:11:00,
2013-01-29 01:21:00,46.0,39.0,30.24,North,360,0.0,-999.0,75,-99.99,,,-99.99,,2013-01-29 06:21:00,
2013-01-29 01:32:00,46.0,38.0,30.24,North,360,0.0,-999.0,74,-99.99,,,-99.99,,2013-01-29 06:32:00,
2013-01-29 01:42:00,46.0,38.0,30.24,North,360,0.0,-999.0,74,-99.99,,,-99.99,,2013-01-29 06:42:00,
2013-01-29 01:52:00,46.0,39.0,30.24,North,360,0.0,-999.0,77,-99.99,,,-99.99,,2013-01-29 06:52:00,
2013-01-29 02:02:00,47.0,39.0,30.24,North,360,0.0,-999.0,73,-99.99,,,-99.99,,2013-01-29 07:02:00,
2013-01-29 02:11:00,47.0,39.0,30.24,North,360,0.0,-999.0,73,-99.99,,,-99.99,,2013-01-29 07:11:00,
2013-01-29 02:21:00,48.0,39.0,30.23,North,360,2.0,-999.0,71,-99.99,,,-99.99,,2013-01-29 07:21:00,
2013-01-29 02:32:00,48.0,39.0,30.23,North,360,3.0,-999.0,72,-99.99,,,-99.99,,2013-01-29 07:32:00,
2013-01-29 02:42:00,48.0,39.0,30.23,North,360,3.0,-999.0,72,-99.99,,,-99.99,,2013-01-29 07:42:00,
2013-01-29 02:52:00,48.0,39.0,30.23,North,360,4.0,-999.0,71,-99.99,,,-99.99,,2013-01-29 07:52:00,
2013-01-29 03:02:00,48.0,39.0,30.23,North,360,2.0,-999.0,71,-99.99,,,-99.99,,2013-01-29 08:02:00,
2013-01-29 03:11:00,48.0,39.0,30.23,North,360,2.0,-999.0,71,-99.99,,,-99.99,,2013-01-29 08:11:00,
2013-01-29 03:21:00,47.0,38.0,30.23,North,360,1.0,-999.0,72,-99.99,,,-99.99,,2013-01-29 08:21:00,
2013-01-29 03:32:00,47.0,40.0,30.23,North,360,4.0,-999.0,77,-99.99,,,-99.99,,2013-01-29 08:32:00,
2013-01-29 03:42:00,47.0,40.0,30.23,North,360,4.0,-999.0,77,-99.99,,,-99.99,,2013-01-29 08:42:00,
2013-01-29 03:52:00,47.0,41.0,30.23,North,360,3.0,-999.0,78,-99.99,,,-99.99,,2013-01-29 08:52:00,
2013-01-29 04:02:00,46.0,41.0,30.24,North,360,3.0,-999.0,82,-99.99,,,-99.99,,2013-01-29 09:02:00,
2013-01-29 04:11:00,46.0,41.0,30.24,North,360,3.0,-999.0,82,-99.99,,,-99.99,,2013-01-29 09:11:00,
2013-01-29 04:21:00,44.0,40.0,30.24,North,360,1.0,-999.0,85,-99.99,,,-99.99,,2013-01-29 09:21:00,
2013-01-29 04:32:00,44.0,40.0,30.24,North,360,2.0,-999.0,87,-99.99,,,-99.99,,2013-01-29 09:32:00,
2013-01-29 04:42:00,44.0,40.0,30.24,North,360,2.0,-999.0,87,-99.99,,,-99.99,,2013-01-29 09:42:00,
2013-01-29 04:52:00,45.0,42.0,30.24,North,360,3.0,-999.0,90,-99.99,,,-99.99,,2013-01-29 09:52:00,
2013-01-29 05:01:00,45.0,43.0,30.22,North,360,4.0,-999.0,92,-99.99,,,-99.99,,2013-01-29 10:01:00,
2013-01-29 05:11:00,45.0,43.0,30.22,North,360,4.0,-999.0,92,-99.99,,,-99.99,,2013-01-29 10:11:00,
2013-01-29 05:21:00,46.0,44.0,30.23,North,360,3.0,-999.0,93,-99.99,,,-99.99,,2013-01-29 10:21:00,
2013-01-29 05:32:00,46.0,44.0,30.21,North,360,3.0,-999.0,93,-99.99,,,-99.99,,2013-01-29 10:32:00,
2013-01-29 05:42:00,46.0,44.0,30.21,North,360,3.0,-999.0,93,-99.99,,,-99.99,,2013-01-29 10:42:00,
2013-01-29 05:52:00,46.0,44.0,30.21,North,360,2.0,-999.0,93,-99.99,,,-99.99,,2013-01-29 10:52:00,
2013-01-29 06:02:00,46.0,44.0,30.20,North,360,2.0,-999.0,94,-99.99,,,-99.99,,2013-01-29 11:02:00,
2013-01-29 06:11:00,46.0,44.0,30.20,North,360,2.0,-999.0,94,-99.99,,,-99.99,,2013-01-29 11:11:00,
2013-01-29 06:22:00,46.0,44.0,30.21,North,360,3.0,-999.0,94,-99.99,,,-99.99,,2013-01-29 11:22:00,
2013-01-29 06:32:00,46.0,45.0,30.22,North,360,1.0,-999.0,95,-99.99,,,-99.99,,2013-01-29 11:32:00,
2013-01-29 06:42:00,46.0,45.0,30.22,North,360,1.0,-999.0,95,-99.99,,,-99.99,,2013-01-29 11:42:00,
2013-01-29 06:53:00,47.0,46.0,30.21,North,360,2.0,-999.0,95,-99.99,,,-99.99,,2013-01-29 11:53:00,
2013-01-29 07:02:00,47.0,46.0,30.21,North,360,2.0,-999.0,96,-99.99,,,-99.99,,2013-01-29 12:02:00,
2013-01-29 07:12:00,47.0,46.0,30.21,North,360,2.0,-999.0,96,-99.99,,,-99.99,,2013-01-29 12:12:00,
2013-01-29 07:22:00,47.0,46.0,30.22,North,360,2.0,-999.0,96,-99.99,,,-99.99,,2013-01-29 12:22:00,
2013-01-29 07:33:00,47.0,46.0,30.22,North,360,1.0,-999.0,96,-99.99,,,-99.99,,2013-01-29 12:33:00,
2013-01-29 07:43:00,47.0,46.0,30.22,North,360,1.0,-999.0,96,-99.99,,,-99.99,,2013-01-29 12:43:00,
2013-01-29 07:53:00,47.0,46.0,30.22,North,360,3.0,-999.0,96,-99.99,,,-99.99,,2013-01-29 12:53:00,
2013-01-29 08:02:00,47.0,46.0,30.22,North,360,1.0,-999.0,96,-99.99,,,-99.99,,2013-01-29 13:02:00,
2013-01-29 08:12:00,47.0,46.0,30.22,North,360,1.0,-999.0,96,-99.99,,,-99.99,,2013-01-29 13:12:00,
2013-01-29 08:22:00,48.0,47.0,30.21,North,360,6.0,-999.0,96,-99.99,,,-99.99,,2013-01-29 13:22:00,
2013-01-29 08:32:00,48.0,47.0,30.21,North,360,6.0,-999.0,96,-99.99,,,-99.99,,2013-01-29 13:32:00,
2013-01-29 08:43:00,48.0,47.0,30.21,North,360,6.0,-999.0,96,-99.99,,,-99.99,,2013-01-29 13:43:00,
2013-01-29 08:53:00,48.0,47.0,30.21,North,360,5.0,-999.0,96,-99.99,,,-99.99,,2013-01-29 13:53:00,
2013-01-29 09:02:00,49.0,48.0,30.22,North,360,2.0,-999.0,95,-99.99,,,-99.99,,2013-01-29 14:02:00,
2013-01-29 09:12:00,49.0,48.0,30.19,North,360,3.0,-999.0,95,-99.99,,,-99.99,,2013-01-29 14:12:00,
2013-01-29 09:22:00,49.0,48.0,30.19,North,360,3.0,-999.0,95,-99.99,,,-99.99,,2013-01-29 14:22:00,
2013-01-29 09:33:00,49.0,48.0,30.19,North,360,2.0,-999.0,95,-99.99,,,-99.99,,2013-01-29 14:33:00,
2013-01-29 09:43:00,49.0,48.0,30.19,North,360,2.0,-999.0,95,-99.99,,,-99.99,,2013-01-29 14:43:00,
2013-01-29 09:53:00,50.0,49.0,30.18,North,360,2.0,-999.0,95,-99.99,,,-99.99,,2013-01-29 14:53:00,
2013-01-29 10:02:00,50.0,49.0,30.18,North,360,2.0,-999.0,95,-99.99,,,-99.99,,2013-01-29 15:02:00,
2013-01-29 10:12:00,50.0,49.0,30.18,North,360,2.0,-999.0,95,-99.99,,,-99.99,,2013-01-29 15:12:00,
2013-01-29 10:22:00,50.0,48.0,30.18,North,360,6.0,-999.0,94,-99.99,,,-99.99,,2013-01-29 15:22:00,
2013-01-29 10:33:00,50.0,49.0,30.19,North,360,3.0,-999.0,95,-99.99,,,-99.99,,2013-01-29 15:33:00,
2013-01-29 10:43:00,50.0,49.0,30.19,North,360,3.0,-999.0,95,-99.99,,,-99.99,,2013-01-29 15:43:00,
2013-01-29 10:53:00,50.0,49.0,30.19,North,360,5.0,-999.0,96,-99.99,,,-99.99,,2013-01-29 15:53:00,
2013-01-29 11:03:00,50.0,49.0,30.19,North,360,5.0,-999.0,96,-99.99,,,-99.99,,2013-01-29 16:03:00,
2013-01-29 11:12:00,50.0,49.0,30.19,North,360,5.0,-999.0,96,-99.99,,,-99.99,,2013-01-29 16:12:00,
2013-01-29 11:23:00,50.0,49.0,30.19,North,360,5.0,-999.0,96,-99.99,,,-99.99,,2013-01-29 16:23:00,
2013-01-29 11:32:00,51.0,50.0,30.19,North,360,6.0,-999.0,95,-99.99,,,-99.99,,2013-01-29 16:32:00,
2013-01-29 11:43:00,51.0,50.0,30.19,North,360,6.0,-999.0,95,-99.99,,,-99.99,,2013-01-29 16:43:00,
2013-01-29 11:53:00,51.0,49.0,30.19,North,360,7.0,-999.0,94,-99.99,,,-99.99,,2013-01-29 16:53:00,
2013-01-29 12:03:00,51.0,50.0,30.18,North,360,5.0,-999.0,95,-99.99,,,-99.99,,2013-01-29 17:03:00,
2013-01-29 12:12:00,51.0,50.0,30.18,North,360,5.0,-999.0,95,-99.99,,,-99.99,,2013-01-29 17:12:00,
2013-01-29 12:22:00,52.0,51.0,30.17,North,360,5.0,-999.0,95,-99.99,,,-99.99,,2013-01-29 17:22:00,
2013-01-29 12:33:00,52.0,51.0,30.16,North,360,3.0,-999.0,96,-99.99,,,-99.99,,2013-01-29 17:33:00,
2013-01-29 12:42:00,52.0,51.0,30.16,North,360,3.0,-999.0,96,-99.99,,,-99.99,,2013-01-29 17:42:00,
2013-01-29 12:52:00,51.0,50.0,30.15,North,360,8.0,-999.0,97,-99.99,,,-99.99,,2013-01-29 17:52:00,
2013-01-29 13:04:00,51.0,50.0,30.15,North,360,5.0,-999.0,98,-99.99,,,-99.99,,2013-01-29 18:04:00,
2013-01-29 13:12:00,51.0,50.0,30.15,North,360,5.0,-999.0,98,-99.99,,,-99.99,,2013-01-29 18:12:00,
2013-01-29 13:22:00,51.0,50.0,30.13,North,360,6.0,-999.0,98,-99.99,,,-99.99,,2013-01-29 18:22:00,
2013-01-29 13:33:00,51.0,50.0,30.12,North,360,3.0,-999.0,98,-99.99,,,-99.99,,2013-01-29 18:33:00,
2013-01-29 13:42:00,51.0,50.0,30.12,North,360,3.0,-999.0,98,-99.99,,,-99.99,,2013-01-29 18:42:00,
2013-01-29 13:52:00,51.0,50.0,30.11,North,360,7.0,-999.0,98,-99.99,,,-99.99,,2013-01-29 18:52:00,
2013-01-29 14:03:00,51.0,50.0,30.11,North,360,7.0,-999.0,98,-99.99,,,-99.99,,2013-01-29 19:03:00,
2013-01-29 14:12:00,51.0,50.0,30.11,North,360,7.0,-999.0,98,-99.99,,,-99.99,,2013-01-29 19:12:00,
2013-01-29 14:23:00,51.0,50.0,30.11,North,360,6.0,-999.0,98,-99.99,,,-99.99,,2013-01-29 19:23:00,
2013-01-29 14:32:00,51.0,50.0,30.10,North,360,3.0,-999.0,98,-99.99,,,-99.99,,2013-01-29 19:32:00,
2013-01-29 14:42:00,51.0,50.0,30.10,North,360,3.0,-999.0,98,-99.99,,,-99.99,,2013-01-29 19:42:00,
2013-01-29 14:52:00,51.0,50.0,30.09,North,360,3.0,-999.0,98,-99.99,,,-99.99,,2013-01-29 19:52:00,
2013-01-29 15:02:00,52.0,51.0,30.09,North,360,6.0,-999.0,98,-99.99,,,-99.99,,2013-01-29 20:02:00,
2013-01-29 15:13:00,52.0,51.0,30.09,North,360,6.0,-999.0,98,-99.99,,,-99.99,,2013-01-29 20:13:00,
2013-01-29 15:22:00,52.0,51.0,30.11,North,360,6.0,-999.0,98,-99.99,,,-99.99,,2013-01-29 20:22:00,
2013-01-29 15:33:00,52.0,51.0,30.11,North,360,5.0,-999.0,98,-99.99,,,-99.99,,2013-01-29 20:33:00,
2013-01-29 15:42:00,52.0,51.0,30.11,North,360,5.0,-999.0,98,-99.99,,,-99.99,,2013-01-29 20:42:00,
2013-01-29 15:53:00,52.0,51.0,30.10,North,360,4.0,-999.0,98,-99.99,,,-99.99,,2013-01-29 20:53:00,
2013-01-29 16:03:00,52.0,51.0,30.09,North,360,4.0,-999.0,98,-99.99,,,-99.99,,2013-01-29 21:03:00,
2013-01-29 16:12:00,52.0,51.0,30.09,North,360,4.0,-999.0,98,-99.99,,,-99.99,,2013-01-29 21:12:00,
2013-01-29 16:22:00,52.0,51.0,30.09,North,360,7.0,-999.0,98,-99.99,,,-99.99,,2013-01-29 21:22:00,
2013-01-29 16:33:00,52.0,51.0,30.08,North,360,5.0,-999.0,98,-99.99,,,-99.99,,2013-01-29 21:33:00,
2013-01-29 16:42:00,52.0,51.0,30.08,North,360,5.0,-999.0,98,-99.99,,,-99.99,,2013-01-29 21:42:00,
2013-01-29 16:53:00,52.0,51.0,30.07,North,360,6.0,-999.0,98,-99.99,,,-99.99,,2013-01-29 21:53:00,
2013-01-29 17:03:00,52.0,52.0,30.07,North,360,5.0,-999.0,99,-99.99,,,-99.99,,2013-01-29 22:03:00,
2013-01-29 17:12:00,52.0,52.0,30.07,North,360,5.0,-999.0,99,-99.99,,,-99.99,,2013-01-29 22:12:00,
2013-01-29 17:22:00,52.0,51.0,30.07,North,360,4.0,-999.0,98,-99.99,,,-99.99,,2013-01-29 22:22:00,
2013-01-29 17:33:00,52.0,51.0,30.07,North,360,8.0,-999.0,98,-99.99,,,-99.99,,2013-01-29 22:33:00,
2013-01-29 17:42:00,52.0,51.0,30.07,North,360,8.0,-999.0,98,-99.99,,,-99.99,,2013-01-29 22:42:00,
2013-01-29 17:53:00,52.0,52.0,30.07,North,360,7.0,-999.0,99,-99.99,,,-99.99,,2013-01-29 22:53:00,
2013-01-29 18:02:00,52.0,52.0,30.07,North,360,7.0,-999.0,99,-99.99,,,-99.99,,2013-01-29 23:02:00,
2013-01-29 18:12:00,52.0,52.0,30.07,North,360,7.0,-999.0,99,-99.99,,,-99.99,,2013-01-29 23:12:00,
2013-01-29 18:23:00,52.0,52.0,30.05,North,360,8.0,-999.0,99,-99.99,,,-99.99,,2013-01-29 23:23:00,
2013-01-29 18:33:00,52.0,52.0,30.05,North,360,7.0,-999.0,99,-99.99,,,-99.99,,2013-01-29 23:33:00,
2013-01-29 18:42:00,52.0,52.0,30.05,North,360,7.0,-999.0,99,-99.99,,,-99.99,,2013-01-29 23:42:00,
2013-01-29 18:53:00,51.0,50.0,30.05,North,360,6.0,-999.0,98,-99.99,,,-99.99,,2013-01-29 23:53:00,
2013-01-29 19:03:00,51.0,50.0,30.05,North,360,8.0,-999.0,98,-99.99,,,-99.99,,2013-01-30 00:03:00,
2013-01-29 19:12:00,51.0,50.0,30.05,North,360,8.0,-999.0,98,-99.99,,,-99.99,,2013-01-30 00:12:00,
2013-01-29 19:22:00,51.0,50.0,30.04,North,360,8.0,-999.0,98,-99.99,,,-99.99,,2013-01-30 00:22:00,
2013-01-29 19:32:00,51.0,50.0,30.04,North,360,8.0,-999.0,98,-99.99,,,-99.99,,2013-01-30 00:32:00,
2013-01-29 19:43:00,51.0,50.0,30.04,North,360,8.0,-999.0,98,-99.99,,,-99.99,,2013-01-30 00:43:00,
2013-01-29 19:53:00,51.0,50.0,30.05,North,360,7.0,-999.0,98,-99.99,,,-99.99,,2013-01-30 00:53:00,
2013-01-29 20:02:00,51.0,51.0,30.04,North,360,9.0,-999.0,99,-99.99,,,-99.99,,2013-01-30 01:02:00,
2013-01-29 20:12:00,51.0,51.0,30.04,North,360,9.0,-999.0,99,-99.99,,,-99.99,,2013-01-30 01:12:00,
2013-01-29 20:22:00,52.0,52.0,30.03,North,360,9.0,-999.0,99,-99.99,,,-99.99,,2013-01-30 01:22:00,
2013-01-29 20:32:00,51.0,51.0,30.03,North,360,9.0,-999.0,99,-99.99,,,-99.99,,2013-01-30 01:32:00,
2013-01-29 20:42:00,51.0,51.0,30.03,North,360,9.0,-999.0,99,-99.99,,,-99.99,,2013-01-30 01:42:00,
2013-01-29 20:52:00,52.0,52.0,30.04,North,360,8.0,-999.0,99,-99.99,,,-99.99,,2013-01-30 01:52:00,
2013-01-29 21:02:00,52.0,52.0,30.04,North,360,8.0,-999.0,99,-99.99,,,-99.99,,2013-01-30 02:02:00,
2013-01-29 21:12:00,52.0,52.0,30.04,North,360,8.0,-999.0,99,-99.99,,,-99.99,,2013-01-30 02:12:00,
2013-01-29 21:22:00,52.0,52.0,30.02,North,360,7.0,-999.0,99,-99.99,,,-99.99,,2013-01-30 02:22:00,
2013-01-29 21:33:00,52.0,52.0,30.01,North,360,8.0,-999.0,99,-99.99,,,-99.99,,2013-01-30 02:33:00,
2013-01-29 21:42:00,52.0,52.0,30.01,North,360,8.0,-999.0,99,-99.99,,,-99.99,,2013-01-30 02:42:00,
2013-01-29 21:53:00,52.0,52.0,30.00,North,360,8.0,-999.0,99,-99.99,,,-99.99,,2013-01-30 02:53:00,
2013-01-29 22:03:00,52.0,52.0,29.99,North,360,8.0,-999.0,99,-99.99,,,-99.99,,2013-01-30 03:03:00,
2013-01-29 22:12:00,52.0,52.0,29.99,North,360,8.0,-999.0,99,-99.99,,,-99.99,,2013-01-30 03:12:00,
2013-01-29 22:22:00,52.0,52.0,29.98,North,360,9.0,-999.0,99,-99.99,,,-99.99,,2013-01-30 03:22:00,
2013-01-29 22:32:00,52.0,52.0,29.99,North,360,8.0,-999.0,99,-99.99,,,-99.99,,2013-01-30 03:32:00,
2013-01-29 22:42:00,52.0,52.0,29.99,North,360,8.0,-999.0,99,-99.99,,,-99.99,,2013-01-30 03:42:00,
2013-01-29 22:52:00,52.0,52.0,29.97,North,360,9.0,-999.0,99,-99.99,,,-99.99,,2013-01-30 03:52:00,
2013-01-29 23:02:00,53.0,53.0,29.98,North,360,10.0,-999.0,99,-99.99,,,-99.99,,2013-01-30 04:02:00,
2013-01-29 23:12:00,53.0,53.0,29.98,North,360,10.0,-999.0,99,-99.99,,,-99.99,,2013-01-30 04:12:00,
2013-01-29 23:22:00,53.0,53.0,29.96,North,360,13.0,-999.0,99,-99.99,,,-99.99,,2013-01-30 04:22:00,
2013-01-29 23:32:00,54.0,54.0,29.97,North,360,15.0,-999.0,99,-99.99,,,-99.99,,2013-01-30 04:32:00,
2013-01-29 23:42:00,54.0,54.0,29.97,North,360,15.0,-999.0,99,-99.99,,,-99.99,,2013-01-30 04:42:00,
2013-01-29 23:52:00,54.0,54.0,29.97,North,360,15.0,-999.0,99,-99.99,,,-99.99,,2013-01-30 04:52:00,